User: anonymous   Login
Location: Vancouver
(49.2500°N, 123.1330°W)
Time: 14:38:44
(UTC-08:00)
Language:

Oscar 11 - Orbit

View from above orbital plane
View from above orbital plane
View from above satellite
View from above satellite

Ground track
Ground track

The orbit data is extracted from the following two-line orbital elements,

1 14781U 84021B   18052.89228309 +.00000066 +00000-0 +14270-4 0  9993
2 14781 097.6652 093.9303 0009987 100.1761 260.0580 14.82981761806354
Epoch (UTC): 21 February 2018 21:24:53
Eccentricity: 0.0009987
inclination: 97.6652°
perigee height: 613 km
apogee height: 627 km
right ascension of ascending node: 93.9303°
argument of perigee: 100.1761°
revolutions per day: 14.82981761
mean anomaly at epoch: 260.0580°
orbit number at epoch: 80635

The dashed part of the orbit path shows where the satellite is in the earth's shadow,  

DLR